This demonstration page uses our WeatherBlox Daily Observations layout. Learn more.

Left ArrowRight Arrow

Hourly Observations for February 12, 2017

Temp ( °F °C ) Dew Point ( °F °C ) Humidity (%) Winds ( mph kmh ) Pressure ( in mb ) Visibility ( mi km ) Precip ( " mm )
12:53 am 00:53 Clear 29 -1.7 21 -6.1 72 72 SW 18 30 30.39 1029 10 16 0.00 0.00
1:53 am 01:53 Clear 28 -2.2 20 -6.7 72 72 SW 16 26 30.38 1029 10 16 0.00 0.00
2:53 am 02:53 Clear 27 -2.8 20 -6.7 75 75 SW 15 24 30.39 1029 10 16 0.00 0.00
3:53 am 03:53 Clear 27 -2.8 20 -6.7 75 75 SSW 14 22 30.36 1028 10 16 0.00 0.00
4:53 am 04:53 Clear 27 -2.8 19 -7.2 72 72 SW 14 22 30.36 1028 10 16 0.00 0.00
5:53 am 05:53 Clear 27 -2.8 19 -7.2 72 72 SW 16 26 30.35 1028 10 16 0.00 0.00
6:53 am 06:53 Clear 28 -2.2 19 -7.2 69 69 SW 16 26 30.34 1027 10 16 0.00 0.00
7:53 am 07:53 Sunny 28 -2.2 19 -7.2 69 69 SW 18 30 30.33 1027 10 16 0.00 0.00
8:53 am 08:53 Sunny 31 -0.6 20 -6.7 64 64 SW 18 30 30.32 1027 10 16 0.00 0.00
9:53 am 09:53 Sunny 34 1.1 21 -6.1 59 59 SW 20 31 30.32 1027 10 16 0.00 0.00
10:53 am 10:53 Sunny 37 2.8 23 -5 57 57 SW 25 41 30.29 1026 10 16 0.00 0.00
11:53 am 11:53 Sunny 39 3.9 24 -4.4 55 55 SW 22 35 30.28 1025 10 16 0.00 0.00
12:53 pm 12:53 Sunny 40 4.4 25 -3.9 55 55 WSW 25 41 30.26 1025 10 16 0.00 0.00
1:53 pm 13:53 Sunny 41 5 24 -4.4 51 51 WSW 21 33 30.23 1024 10 16 0.00 0.00
2:53 pm 14:53 Sunny 42 5.6 26 -3.3 53 53 WSW 21 33 30.22 1023 10 16 0.00 0.00
3:53 pm 15:53 Sunny 40 4.4 28 -2.2 63 63 SW 18 30 30.21 1023 10 16 0.00 0.00
4:53 pm 16:53 Sunny 41 5 29 -1.7 62 62 WSW 17 28 30.20 1023 10 16 0.00 0.00
5:53 pm 17:53 Clear 38 3.3 28 -2.2 68 68 SW 16 26 30.20 1023 10 16 0.00 0.00
6:53 pm 18:53 Clear 34 1.1 27 -2.8 76 76 WSW 12 19 30.22 1023 10 16 0.00 0.00
7:53 pm 19:53 Clear 35 1.7 27 -2.8 72 72 SW 17 28 30.21 1023 10 16 0.00 0.00
8:53 pm 20:53 Clear 36 2.2 27 -2.8 70 70 SW 17 28 30.19 1022 10 16 0.00 0.00
9:53 pm 21:53 Clear 33 0.6 26 -3.3 75 75 W 10 17 30.22 1024 10 16 0.00 0.00
10:53 pm 22:53 Clear 34 1.1 25 -3.9 70 70 SSW 17 28 30.21 1023 10 16 0.00 0.00
11:53 pm 23:53 Clear 32 0 25 -3.9 75 75 SW 6 9 30.21 1023 10 16 0.00 0.00

Powered by AerisWeather